EST,Max TemperatureF,Mean TemperatureF,Min TemperatureF,Max Dew PointF,MeanDew PointF,Min DewpointF,Max Humidity, Mean Humidity, Min Humidity, Max Sea Level PressureIn, Mean Sea Level PressureIn, Min Sea Level PressureIn, Max VisibilityMiles, Mean VisibilityMiles, Min VisibilityMiles, Max Wind SpeedMPH, Mean Wind SpeedMPH, Max Gust SpeedMPH,PrecipitationIn, CloudCover, Events, WindDirDegrees
2013-11-1,77,73,69,72,69,66,97,88,79,30.01,29.88,29.76,10,6,1,24,15,39,0.14,5,Rain,225
2013-11-2,76,70,63,72,65,57,100,89,78,29.85,29.73,29.68,10,8,1,20,9,30,0.80,6,Rain-Thunderstorm,274
2013-11-3,65,61,56,58,47,42,78,63,48,30.30,30.09,29.85,10,10,10,16,10,26,0.00,1,,2
2013-11-4,61,58,54,55,45,38,80,66,51,30.47,30.42,30.32,10,10,10,17,12,29,0.00,4,,29
2013-11-5,74,68,61,59,55,51,90,68,46,30.46,30.41,30.38,10,10,10,17,10,24,0.00,2,,56
2013-11-6,70,66,61,64,62,59,100,89,78,30.37,30.26,30.13,10,9,4,14,7,21,0.01,5,Rain,39
2013-11-7,72,66,59,68,64,51,100,90,79,30.11,29.95,29.89,10,7,2,23,9,31,0.05,6,Rain,258
2013-11-8,59,55,50,48,36,28,75,57,38,30.30,30.18,30.00,10,10,10,16,7,26,0.00,2,,360
2013-11-9,61,54,47,51,40,31,83,62,41,30.38,30.30,30.19,10,10,10,9,4,14,0.00,0,,18
2013-11-10,67,62,56,52,47,42,80,61,42,30.19,30.14,30.05,10,10,10,16,9,25,0.00,0,,268
2013-11-11,60,53,46,46,43,39,93,72,51,30.30,30.23,30.15,10,10,10,15,7,28,0.00,0,,25
2013-11-12,64,53,41,49,41,34,93,73,53,30.27,30.14,30.03,10,10,10,21,10,38,0.01,4,Rain,338
2013-11-13,46,43,40,35,29,23,65,56,46,30.47,30.37,30.27,10,10,10,20,9,36,T,4,Rain,356
2013-11-14,57,48,39,44,31,25,79,60,41,30.50,30.43,30.37,10,10,10,12,6,16,0.00,0,,283
2013-11-15,66,56,45,60,50,43,89,70,51,30.39,30.32,30.25,10,10,10,15,5,21,0.00,1,,69
2013-11-16,73,66,58,64,60,57,100,87,73,30.27,30.22,30.19,10,8,2,15,6,21,0.55,5,Rain,44
2013-11-17,73,68,62,68,65,61,100,90,79,30.18,30.12,29.99,10,7,2,16,5,21,0.03,6,Rain,189
2013-11-18,71,65,59,67,64,47,100,82,64,29.96,29.86,29.78,10,6,3,15,7,21,T,6,Rain,230
2013-11-19,51,51,50,45,40,37,66,59,51,30.24,30.07,29.87,10,10,10,14,9,25,0.00,0,,15
2013-11-20,61,56,51,53,47,40,80,72,63,30.38,30.32,30.24,10,10,10,16,11,29,0.00,3,,35
2013-11-21,67,62,56,59,56,53,100,84,67,30.42,30.40,30.37,10,7,2,14,6,18,0.10,8,Rain,23
2013-11-22,67,61,55,61,58,54,100,87,73,30.38,30.24,30.09,10,9,3,12,5,16,0.00,2,,228
2013-11-23,65,58,51,60,50,36,97,76,54,30.07,30.04,30.02,10,10,7,16,9,25,T,8,Rain,328
2013-11-24,51,43,34,42,20,10,71,53,35,30.50,30.32,30.05,10,10,10,18,10,34,0.00,1,,352
2013-11-25,44,39,33,39,28,20,82,67,51,30.57,30.50,30.39,10,10,10,14,7,22,0.00,0,,19
2013-11-26,68,55,42,66,58,41,100,82,64,30.36,30.01,29.66,10,6,2,35,17,47,0.53,6,Rain,155
2013-11-27,71,56,41,68,58,34,100,85,70,30.06,29.59,29.38,10,4,0,39,15,51,1.72,7,Fog-Rain,241
2013-11-28,44,40,36,34,29,25,76,65,53,30.49,30.36,30.09,10,10,10,18,9,30,0.00,0,,359
2013-11-29,50,46,42,39,34,29,76,63,50,30.58,30.53,30.47,10,10,10,14,9,24,0.00,1,,20
2013-11-30,56,52,47,48,45,39,93,83,72,30.54,30.46,30.31,10,10,10,14,8,25,0.00,0,,22